Tracking 32963 objects as of 21-Jan-2026
HD Live streaming from Space Station
objects crossing your sky now

IUS R/B(2)

Track IUS R/B(2) now!


NORAD ID: 23615
Int'l Code: 1995-035D
Perigee: 35,697.1 km
Apogee: 35,775.3 km
Inclination: 15.8 °
Period: 1,433.2 minutes
Semi major axis: 42107 km
RCS: 5.3271 m2 (large)
Launch date: July 13, 1995
Source: United States (US)
Launch site: AIR FORCE EASTERN TEST RANGE (AFETR)

Note: This is a ROCKET BODY
Your satellite tracking list
Your tracking list is empty




NASA's NSSDC Master Catalog

Two Line Element Set (TLE):
1 23615U 95035D   26020.68200813 -.00000103  00000-0  00000-0 0  9992
2 23615  15.7638 342.9854 0009286 184.9718 354.8353  1.00477475111927
Source of the keplerian elements: AFSPC